Regional Weather Roundup
Issued by NWS Green Bay, WI

Home | Current Version | Previous Version | Text Only | Print | Product List | Glossary On
Versions: 1 2 3 4 5 6 7 8 9 10 11 12 13 14 15 16 17 18 19 20 21 22 23 24 25 26 27 28 29 30 31 32 33 34 35 36 37 38 39 40 41 42 43 44 45 46 47 48 49 50
000
ASUS43 KGRB 212200
RWRGRB

NORTH-CENTRAL AND NORTHEAST WISCONSIN REGIONAL WEATHER ROUNDUP
NATIONAL WEATHER SERVICE GREEN BAY WI
400 PM CST TUE FEB 21 2017

WIZ005-009-010>012-018-019-212300-
NORTH CENTRAL WISCONSIN

CITY           SKY/WX    TMP DP  RH WIND       PRES   REMARKS
IRONWOOD       PTSUNNY   54  28  36 S7        29.74F
MANITOWISH WTR NOT AVBL
ARBOR VITAE    NOT AVBL
EAGLE RIVER    NOT AVBL
LAND O LAKES   MOSUNNY   54  26  33 SW6       29.79F
RHINELANDER    SUNNY     54  29  38 SW8       29.81S
PHILLIPS       CLOUDY    53  32  44 S5        29.77F
ANTIGO         NOT AVBL
TOMAHAWK       NOT AVBL
MERRILL        NOT AVBL
$$

WIZ013-073-212300-
NORTHEAST WISCONSIN

CITY           SKY/WX    TMP DP  RH WIND       PRES   REMARKS
IRON MOUNTAIN  SUNNY     58  27  30 W6        29.79S
MARINETTE      SUNNY     58  36  43 VRB7      29.83F
OCONTO         SUNNY     58  37  46 SW9       29.83F
$$

WIZ017-030-035>037-045-212300-
CENTRAL WISCONSIN

CITY           SKY/WX    TMP DP  RH WIND       PRES   REMARKS
MEDFORD        NOT AVBL
WAUSAU         SUNNY     53  36  52 S8        29.82F
MOSINEE        MOSUNNY   54  37  54 S8        29.85F
MARSHFIELD     SUNNY     56  38  50 S13       29.80F
WISC RAPIDS    SUNNY     59  36  42 S12       29.85F
STEVENS POINT  NOT AVBL
WAUPACA        SUNNY     63  32  30 SW3       29.85F
SHAWANO        SUNNY     59  38  45 SW5       29.85F
CLINTONVILLE   SUNNY     59  36  41 SW7       29.85F
WAUTOMA        SUNNY     62  35  36 SW9       29.85F
$$

WIZ038-039-048-051-212300-
FOX VALLEY

CITY           SKY/WX    TMP DP  RH WIND       PRES   REMARKS
NWS GREEN BAY  SUNNY     57  45  64 SW7       29.85F
APPLETON       MOSUNNY   57  36  44 VRB6      29.85F
OSHKOSH        SUNNY     59  40  49 S8        29.86F
FOND DU LAC    SUNNY     59  42  53 S9        29.87F
$$

WIZ022-050-052-212300-
EAST CENTRAL WISCONSIN

CITY           SKY/WX    TMP DP  RH WIND       PRES   REMARKS
EPHRAIM        NOT AVBL
WASHINGTON ISL FAIR      51  38  60 SW7       29.83F
STURGEON BAY   SUNNY     57  38  48 VRB7      29.85F
MANITOWOC      NOT AVBL
SHEBOYGAN      SUNNY     61  33  35 CALM      29.88S
$$

LMZ563-521-522-541>543-212300-
LAKESHORE

STATION/POSITION TIME  TEMP    WIND        PRES    VSBY  WAVE
                       AIR SEA DIR/SP/G                  HT/PER
                 (UTC) (F)     (DEG/KT/KT) (MB)    (MI)  (FT/S)
SHEBOYGAN LKSHOR 2100   42     140/  4/  5 1012.1F
KEWAUNEE LKSHORE 2130   48     180/  3/  6 1010.9S
NORTHPORT PIER   2140   58     230/  5/ 10 1010.2S
SISTER BAY LKSHO 2135   58     250/ 12/ 14   N/A
CHAMBERS ISLAND  2140   51     190/  6/ 15 1010.2S
MENOMINEE LKSHOR 2130   51     170/  9/ 11 1009.5F
$$




USA.gov is the U.S. government's official web portal to all federal, state and local government web resources and services.